Other Surface Observations
Issued by NWS Tucson, AZ

Home | Current Version | Previous Version | Text Only | Print | Product List | Glossary On
Versions: 1 2 3 4 5 6 7 8 9 10 11 12 13 14 15 16 17 18 19 20 21 22 23 24 25 26 27 28 29 30 31 32 33 34 35 36 37 38 39 40 41 42 43 44 45 46 47 48 49 50
345
SXUS55 KTWC 261715
OSOTWC

WEATHER ROUNDUP FOR SOUTHEAST ARIZONA
NATIONAL WEATHER SERVICE TUCSON AZ
1015 AM MST MON SEP 26 2016

AZZ504>506-514-261815-
LOCATION       SKY/WX    TMP DP  RH WIND       PRES   REMARKS
TUCSON         CLOUDY    75  48  38 E7        30.17R
DAVIS-MONTHAN  CLOUDY    73  47  40 E12       30.16R
CHILDRENS PARK N/A      N/A N/A  34 SE10              PIMA CO DEQ
ALVERNON/22ND  N/A       71 N/A N/A E9                PIMA CO DEQ
CHERRY/GLENN   N/A       73 N/A N/A E10               PIMA CO DEQ
TANGERINE      N/A       71 N/A N/A SE2               PIMA CO DEQ
CONTL RANCH    N/A       74  49  41 E6                PIMA CO DEQ
GRANT/1ST      N/A       73  46  38 E10               PIMA CO DEQ
CRAYCROFT/22ND N/A       69  51  52 N/A               PIMA CO DEQ
GOLFLINKS/KOLB N/A       69  51  53 NE10              PIMA CO DEQ
AJO/12TH       N/A       70  52  52 SE6               PIMA CO DEQ
FAIRGROUNDS    N/A       71 N/A N/A SE9               PIMA CO DEQ
SAGUARO        N/A       75  43  32 E9G21             *SABINO CYN
SAN CARLOS     N/A       76  46  34 S8G11             *SAN CARLOS
GREEN VALLEY   N/A       69  47  46 NE3               PIMA CO DEQ
HORSE CAMP CYN N/A       66  47  50 E7G13             *ARAVAIPA CYN
RINCON MTNS    NOT AVBL
$$

AZZ509>511-261815-
LOCATION       SKY/WX    TMP DP  RH WIND       PRES   REMARKS
SAFFORD        CLOUDY    68  52  56 S6        30.24S
STRAY HORSE    N/A       53  33  47 E6G17             *
TRAIL CABIN    N/A       62  37  39 E7G12             *N OF GRANVILLE
BLACK HILLS    NOT AVBL
DRY LAKE       N/A       58  36  43 E5G11             *NATANES MTNS
NOON CREEK     NOT AVBL
COLUMBINE      N/A       42  39  89 E4G14             *PINALENO MTNS
GUTHRIE        N/A       54  44  68 NE10G15           *SW OF GUTHRIE
$$

AZZ502-503-513-261815-
LOCATION       SKY/WX    TMP DP  RH WIND       PRES   REMARKS
NOGALES        LGT RAIN  61  50  67 S17G31    30.21R
SELLS          N/A       74  55  51 E10G15            *
SASABE         N/A       70  45  41 NE8G12            *ALTAR VLY
HOPKINS        N/A       46  42  85 E52G77            *SANTA RITA MTNS
CARR CYN       N/A       51  45  79 SW8G16            *W OF HEREFORD
$$

AZZ507-508-512-261815-
LOCATION       SKY/WX    TMP DP  RH WIND       PRES   REMARKS
SIERRA VISTA   LGT RAIN  54  51  90 SE15      30.31R
DOUGLAS        LGT RAIN  57  51  80 E8        30.30R
EMPIRE MTNS    NOT AVBL
MULESHOE RANCH N/A       64  43  46 E9G23             *PRESERVE
HEADQUARTERS   NOT AVBL
$$

.............................NOTES.............................
THIS IS AN AUTOMATED COLLECTIVE WITH MINIMAL QUALITY CONTROL.
PIMA CO DEQ SITES HAVE NONSTANDARD WIND SENSOR HEIGHTS.
PIMA CO DEQ SITES DO NOT REPORT WIND GUSTS.
* INDICATES WIND SENSORS LOCATED AT 20 FEET INSTEAD OF 33 FEET.
..............................KEY..............................
SKY/WX - SKY CONDITION/WEATHER
TMP    - TEMPERATURE IN FAHRENHEIT
DP     - DEWPOINT IN FAHRENHEIT
RH     - RELATIVE HUMIDITY IN PERCENT
WIND   - DIRECTION AND SPEED IN MILES PER HOUR (MPH)
VRB    - VARIABLE WIND DIRECTION
PRES   - MEAN SEA LEVEL PRESSURE IN INCHES OF MERCURY
         F - FALLING PRESSURE   R - RISING PRESSURE
         S - STEADY PRESSURE
VSB    - VISIBILITY IN MILES
HX     - HEAT INDEX IN FAHRENHEIT
WCI    - WIND CHILL INDEX IN FAHRENHEIT
N/A    - NOT AVAILABLE
AFB    - AIR FORCE BASE
         DAVIS-MONTHAN IS DAVIS-MONTHAN AIR FORCE BASE
CYN    - CANYON
MTNS   - MOUNTAINS
NCA    - NATIONAL CONSERVATION AREA
NR     - NEAR
VLY    - VALLEY
CONTL  - CONTINENTAL
PIMA CO DEQ - PIMA COUNTY DEPT OF ENVIRONMENTAL QUALITY



USA.gov is the U.S. government's official web portal to all federal, state and local government web resources and services.